�������l�o���
Date,Time,MP-1(��Sv/h),MP-2(��Sv/h),MP-3(��Sv/h),MP-4(��Sv/h),MP-5(��Sv/h),MP-6(��Sv/h),MP-7(��Sv/h),MP-8(��Sv/h),����,����(m/s),���J
2017/12/02,00:00,0.884,1.450,0.923,1.737,1.180,0.492,0.878,0.840,�k�k��,6.5,��
2017/12/02,00:10,0.884,1.449,0.924,1.734,1.179,0.491,0.876,0.841,�k�k��,7.3,��
2017/12/02,00:20,0.882,1.450,0.927,1.737,1.179,0.490,0.878,0.840,�k�k��,7.5,��
2017/12/02,00:30,0.883,1.449,0.924,1.737,1.180,0.491,0.877,0.840,�k�k��,6.2,��
2017/12/02,00:40,0.883,1.452,0.923,1.737,1.182,0.490,0.877,0.839,�k�k��,5.1,��
2017/12/02,00:50,0.883,1.450,0.923,1.735,1.181,0.491,0.876,0.841,�k��,5.0,��
2017/12/02,01:00,0.882,1.451,0.920,1.735,1.178,0.490,0.876,0.840,�k�k��,5.7,��
2017/12/02,01:10,0.883,1.450,0.923,1.735,1.182,0.490,0.879,0.840,�k�k��,5.3,��
2017/12/02,01:20,0.882,1.451,0.925,1.732,1.180,0.490,0.877,0.839,�k�k��,5.8,��
2017/12/02,01:30,0.883,1.450,0.924,1.736,1.179,0.490,0.877,0.840,�k�k��,6.4,��
2017/12/02,01:40,0.884,1.451,0.925,1.735,1.179,0.489,0.877,0.841,�k�k��,5.8,��
2017/12/02,01:50,0.883,1.450,0.925,1.734,1.181,0.489,0.875,0.840,�k,5.9,��
2017/12/02,02:00,0.881,1.449,0.925,1.737,1.180,0.490,0.878,0.841,�k,5.1,��
2017/12/02,02:10,0.882,1.450,0.923,1.736,1.182,0.490,0.877,0.839,�k�k��,4.9,��
2017/12/02,02:20,0.883,1.450,0.922,1.736,1.180,0.491,0.876,0.839,�k�k��,4.2,��
2017/12/02,02:30,0.884,1.451,0.922,1.737,1.180,0.492,0.876,0.840,�k,3.8,��
2017/12/02,02:40,0.882,1.449,0.921,1.735,1.180,0.489,0.879,0.839,�k�k��,4.2,��
2017/12/02,02:50,0.882,1.450,0.922,1.736,1.178,0.490,0.877,0.841,�k�k��,4.5,��
2017/12/02,03:00,0.882,1.449,0.922,1.738,1.179,0.489,0.875,0.840,�k�k��,4.3,��
2017/12/02,03:10,0.884,1.447,0.925,1.733,1.181,0.492,0.876,0.839,�k�k��,4.7,��
2017/12/02,03:20,0.885,1.448,0.924,1.735,1.179,0.491,0.877,0.841,�k�k��,5.6,��
2017/12/02,03:30,0.881,1.449,0.923,1.736,1.179,0.492,0.876,0.840,�k�k��,5.9,��
2017/12/02,03:40,0.883,1.449,0.922,1.735,1.180,0.488,0.874,0.839,�k��,5.8,��
2017/12/02,03:50,0.881,1.451,0.924,1.732,1.179,0.489,0.874,0.840,�k��,6.7,��
2017/12/02,04:00,0.881,1.449,0.923,1.736,1.179,0.490,0.874,0.839,�k��,7.1,��
2017/12/02,04:10,0.882,1.450,0.921,1.734,1.179,0.490,0.875,0.838,���k��,7.3,��
2017/12/02,04:20,0.881,1.447,0.924,1.735,1.180,0.490,0.876,0.840,���k��,7.0,��
2017/12/02,04:30,0.881,1.447,0.923,1.735,1.182,0.490,0.875,0.840,���k��,6.6,��
2017/12/02,04:40,0.880,1.450,0.923,1.736,1.179,0.491,0.876,0.838,���k��,6.6,��
2017/12/02,04:50,0.883,1.449,0.924,1.737,1.180,0.490,0.877,0.841,���k��,6.3,��
2017/12/02,05:00,0.882,1.448,0.924,1.736,1.179,0.491,0.877,0.841,���k��,5.8,��
2017/12/02,05:10,0.883,1.451,0.925,1.735,1.179,0.489,0.875,0.840,���k��,5.5,��
2017/12/02,05:20,0.880,1.450,0.924,1.733,1.180,0.489,0.877,0.839,���k��,6.4,��
2017/12/02,05:30,0.880,1.450,0.923,1.736,1.178,0.490,0.878,0.841,���k��,7.6,��
2017/12/02,05:40,0.883,1.449,0.922,1.736,1.177,0.488,0.875,0.840,�k��,8.9,��
2017/12/02,05:50,0.884,1.450,0.923,1.738,1.180,0.489,0.875,0.841,�k��,9.5,��
2017/12/02,06:00,0.881,1.449,0.923,1.735,1.178,0.488,0.878,0.839,���k��,8.5,��
2017/12/02,06:10,0.883,1.447,0.923,1.734,1.177,0.490,0.875,0.840,���k��,7.7,��
2017/12/02,06:20,0.880,1.450,0.923,1.735,1.178,0.490,0.877,0.840,���k��,7.9,��
2017/12/02,06:30,0.884,1.449,0.921,1.737,1.180,0.489,0.877,0.839,���k��,7.9,��
2017/12/02,06:40,0.882,1.448,0.923,1.736,1.180,0.489,0.876,0.839,���k��,7.4,��
2017/12/02,06:50,0.882,1.449,0.922,1.736,1.178,0.491,0.877,0.841,���k��,6.9,��
2017/12/02,07:00,0.880,1.450,0.922,1.736,1.180,0.489,0.879,0.839,���k��,7.2,��
2017/12/02,07:10,0.882,1.450,0.924,1.736,1.179,0.489,0.878,0.840,���k��,7.4,��
2017/12/02,07:20,0.882,1.447,0.923,1.739,1.180,0.491,0.877,0.839,�k��,7.1,��
2017/12/02,07:30,0.882,1.448,0.922,1.735,1.177,0.488,0.876,0.840,�k��,5.9,��
2017/12/02,07:40,0.883,1.450,0.925,1.737,1.179,0.492,0.878,0.841,�k��,5.0,��
2017/12/02,07:50,0.883,1.452,0.926,1.740,1.178,0.489,0.876,0.840,�k��,5.6,��
2017/12/02,08:00,0.882,1.448,0.922,1.738,1.178,0.490,0.878,0.842,�k��,5.7,��
2017/12/02,08:10,0.883,1.451,0.922,1.741,1.179,0.491,0.878,0.839,�k��,5.4,��
2017/12/02,08:20,0.884,1.450,0.925,1.737,1.179,0.490,0.878,0.841,���k��,4.9,��
2017/12/02,08:30,0.885,1.452,0.925,1.739,1.180,0.490,0.878,0.841,���k��,4.0,��
2017/12/02,08:40,0.885,1.452,0.924,1.738,1.183,0.491,0.880,0.840,���k��,3.2,��
2017/12/02,08:50,0.885,1.454,0.924,1.738,1.178,0.491,0.878,0.840,�k��,4.2,��
2017/12/02,09:00,0.884,1.450,0.926,1.739,1.180,0.490,0.879,0.842,��,3.5,��
2017/12/02,09:10,0.887,1.452,0.927,1.739,1.181,0.490,0.881,0.840,���k��,3.9,��
2017/12/02,09:20,0.887,1.452,0.925,1.738,1.181,0.491,0.881,0.840,���k��,4.9,��
2017/12/02,09:30,0.887,1.449,0.925,1.739,1.183,0.491,0.879,0.842,���k��,4.7,��
2017/12/02,09:40,0.885,1.448,0.927,1.741,1.179,0.491,0.879,0.843,���k��,5.3,��
2017/12/02,09:50,0.883,1.448,0.926,1.738,1.180,0.492,0.876,0.841,�k��,5.8,��
2017/12/02,10:00,0.886,1.449,0.925,1.738,1.184,0.490,0.877,0.842,�k��,5.2,��
2017/12/02,10:10,0.886,1.449,0.926,1.738,1.184,0.490,0.877,0.841,���k��,4.0,��
2017/12/02,10:20,0.886,1.451,0.928,1.743,1.182,0.492,0.875,0.841,���쐼,3.0,��
2017/12/02,10:30,0.887,1.449,0.928,1.741,1.181,0.491,0.878,0.842,��,2.3,��
2017/12/02,10:40,0.887,1.450,0.927,1.743,1.184,0.492,0.877,0.842,��,2.5,��
2017/12/02,10:50,0.888,1.452,0.929,1.744,1.186,0.492,0.879,0.843,��,2.0,��
2017/12/02,11:00,0.887,1.450,0.926,1.745,1.186,0.492,0.880,0.842,�쐼,1.9,��
2017/12/02,11:10,0.887,1.451,0.928,1.743,1.183,0.493,0.878,0.841,�k��,1.2,��
2017/12/02,11:20,0.887,1.446,0.928,1.743,1.183,0.491,0.880,0.842,-,CALM,��
2017/12/02,11:30,0.887,1.449,0.928,1.743,1.186,0.492,0.877,0.842,���쓌,2.9,��
2017/12/02,11:40,0.887,1.450,0.927,1.743,1.186,0.493,0.877,0.842,���쓌,2.6,��
2017/12/02,11:50,0.889,1.452,0.929,1.743,1.189,0.493,0.878,0.843,���쓌,2.3,��
2017/12/02,12:00,0.889,1.452,0.929,1.746,1.187,0.492,0.879,0.841,���k��,2.0,��
2017/12/02,12:10,0.892,1.456,0.931,1.743,1.187,0.493,0.878,0.843,���쓌,1.7,��
2017/12/02,12:20,0.890,1.457,0.929,1.745,1.187,0.492,0.878,0.843,��,1.1,��
2017/12/02,12:30,0.890,1.456,0.932,1.744,1.188,0.492,0.879,0.845,��,1.2,��
2017/12/02,12:40,0.891,1.453,0.931,1.744,1.189,0.492,0.880,0.843,�쓌,2.6,��
2017/12/02,12:50,0.891,1.455,0.931,1.743,1.189,0.493,0.878,0.844,��,1.4,��
2017/12/02,13:00,0.891,1.452,0.932,1.745,1.188,0.492,0.879,0.843,���k��,1.5,��
2017/12/02,13:10,0.890,1.450,0.931,1.744,1.188,0.493,0.880,0.842,���k��,1.7,��
2017/12/02,13:20,0.889,1.452,0.928,1.745,1.190,0.491,0.880,0.842,�k��,2.0,��
2017/12/02,13:30,0.891,1.452,0.929,1.749,1.189,0.493,0.879,0.842,���k��,4.8,��
2017/12/02,13:40,0.891,1.455,0.931,1.745,1.191,0.493,0.879,0.843,���k��,4.5,��
2017/12/02,13:50,0.892,1.454,0.929,1.748,1.190,0.494,0.878,0.840,���k��,3.3,��
2017/12/02,14:00,0.894,1.455,0.930,1.746,1.190,0.492,0.880,0.841,��,2.6,��
2017/12/02,14:10,0.892,1.455,0.932,1.743,1.189,0.492,0.881,0.839,���k��,3.2,��
2017/12/02,14:20,0.891,1.453,0.928,1.746,1.189,0.494,0.881,0.842,�k��,2.9,��
2017/12/02,14:30,0.892,1.457,0.928,1.746,1.191,0.492,0.881,0.841,���k��,2.6,��
2017/12/02,14:40,0.890,1.457,0.930,1.746,1.192,0.492,0.880,0.844,�k��,2.0,��
2017/12/02,14:50,0.891,1.456,0.928,1.745,1.192,0.492,0.880,0.844,���k��,2.0,��
2017/12/02,15:00,0.892,1.461,0.931,1.746,1.190,0.492,0.880,0.843,��,1.5,��
2017/12/02,15:10,0.891,1.459,0.930,1.744,1.189,0.492,0.881,0.841,��,2.0,��
2017/12/02,15:20,0.891,1.461,0.931,1.744,1.189,0.493,0.880,0.843,���k��,1.5,��
2017/12/02,15:30,0.893,1.460,0.931,1.744,1.193,0.493,0.881,0.844,��,1.7,��
2017/12/02,15:40,0.891,1.461,0.930,1.746,1.188,0.493,0.880,0.843,���k��,1.4,��
2017/12/02,15:50,0.890,1.461,0.929,1.745,1.188,0.494,0.880,0.842,��,1.5,��
2017/12/02,16:00,0.889,1.461,0.929,1.743,1.189,0.494,0.879,0.843,���쓌,1.5,��
2017/12/02,16:10,0.890,1.458,0.931,1.745,1.190,0.494,0.880,0.843,���쓌,1.1,��
2017/12/02,16:20,0.890,1.461,0.927,1.744,1.190,0.493,0.881,0.845,��,1.7,��
2017/12/02,16:30,0.888,1.461,0.928,1.746,1.189,0.494,0.881,0.843,�k,2.6,��
2017/12/02,16:40,0.888,1.460,0.928,1.742,1.188,0.491,0.878,0.842,�k�k��,3.1,��
2017/12/02,16:50,0.889,1.458,0.930,1.743,1.188,0.491,0.878,0.842,�k�k��,2.0,��
2017/12/02,17:00,0.888,1.458,0.927,1.740,1.189,0.492,0.878,0.844,���k��,0.6,��
2017/12/02,17:10,0.888,1.458,0.929,1.743,1.185,0.491,0.878,0.842,-,CALM,��
2017/12/02,17:20,0.889,1.456,0.925,1.744,1.188,0.492,0.879,0.843,�쐼,0.6,��
2017/12/02,17:30,0.887,1.456,0.930,1.741,1.188,0.492,0.878,0.841,�쐼,0.6,��
2017/12/02,17:40,0.888,1.461,0.928,1.744,1.188,0.492,0.879,0.843,���k��,0.9,��
2017/12/02,17:50,0.885,1.458,0.931,1.741,1.188,0.491,0.877,0.841,��,1.2,��
2017/12/02,18:00,0.888,1.460,0.928,1.740,1.188,0.493,0.878,0.842,���k��,2.0,��
2017/12/02,18:10,0.890,1.457,0.928,1.744,1.188,0.491,0.877,0.843,��,1.5,��
2017/12/02,18:20,0.889,1.459,0.928,1.742,1.188,0.493,0.877,0.841,���k��,2.6,��
2017/12/02,18:30,0.888,1.458,0.928,1.742,1.187,0.491,0.876,0.841,���k��,3.1,��
2017/12/02,18:40,0.886,1.457,0.927,1.742,1.188,0.492,0.878,0.842,���쐼,3.0,��
2017/12/02,18:50,0.890,1.459,0.928,1.740,1.187,0.491,0.876,0.841,���쐼,1.7,��
2017/12/02,19:00,0.886,1.458,0.928,1.741,1.189,0.492,0.876,0.840,���쐼,1.5,��
2017/12/02,19:10,0.889,1.457,0.927,1.740,1.188,0.491,0.877,0.841,��,2.0,��
2017/12/02,19:20,0.886,1.456,0.928,1.741,1.189,0.491,0.878,0.843,��,1.7,��
2017/12/02,19:30,0.888,1.457,0.927,1.741,1.187,0.491,0.875,0.842,���쐼,1.4,��
2017/12/02,19:40,0.887,1.458,0.927,1.741,1.187,0.492,0.877,0.841,��쐼,0.9,��
2017/12/02,19:50,0.888,1.456,0.927,1.741,1.186,0.493,0.877,0.842,��쐼,1.9,��
2017/12/02,20:00,0.887,1.457,0.926,1.742,1.187,0.491,0.877,0.842,�쐼,3.1,��
2017/12/02,20:10,0.887,1.457,0.927,1.742,1.188,0.491,0.876,0.842,�쐼,4.0,��
2017/12/02,20:20,0.887,1.457,0.928,1.742,1.183,0.492,0.876,0.843,�쐼,3.4,��
2017/12/02,20:30,0.887,1.458,0.925,1.740,1.187,0.491,0.878,0.842,��쐼,2.5,��
2017/12/02,20:40,0.891,1.456,0.926,1.744,1.186,0.492,0.877,0.842,��쐼,3.2,��
2017/12/02,20:50,0.887,1.457,0.928,1.742,1.187,0.492,0.878,0.841,�쐼,3.4,��
2017/12/02,21:00,0.889,1.456,0.926,1.741,1.186,0.490,0.877,0.842,�쐼,3.3,��
2017/12/02,21:10,0.886,1.458,0.927,1.742,1.187,0.490,0.877,0.842,�쐼,2.9,��
2017/12/02,21:20,0.886,1.457,0.926,1.736,1.187,0.492,0.876,0.840,�쐼,2.6,��
2017/12/02,21:30,0.886,1.456,0.928,1.740,1.186,0.492,0.877,0.842,�쐼,2.9,��
2017/12/02,21:40,0.887,1.456,0.928,1.740,1.186,0.491,0.876,0.841,�쐼,3.3,��
2017/12/02,21:50,0.887,1.457,0.928,1.743,1.187,0.491,0.876,0.842,��쐼,3.1,��
2017/12/02,22:00,0.888,1.456,0.929,1.742,1.187,0.490,0.877,0.843,��쐼,2.2,��
2017/12/02,22:10,0.889,1.457,0.928,1.741,1.189,0.490,0.877,0.841,��쐼,1.2,��
2017/12/02,22:20,0.886,1.457,0.926,1.741,1.187,0.492,0.876,0.840,��쐼,1.7,��
2017/12/02,22:30,0.888,1.457,0.927,1.742,1.187,0.490,0.877,0.843,�쐼,2.2,��
2017/12/02,22:40,0.887,1.457,0.928,1.742,1.186,0.493,0.878,0.842,��쐼,2.3,��
2017/12/02,22:50,0.887,1.458,0.926,1.739,1.187,0.491,0.877,0.841,��쐼,1.7,��
2017/12/02,23:00,0.888,1.458,0.927,1.741,1.186,0.493,0.877,0.843,�쐼,1.5,��
2017/12/02,23:10,0.886,1.457,0.926,1.743,1.186,0.492,0.876,0.842,�쐼,0.9,��
2017/12/02,23:20,0.887,1.457,0.926,1.743,1.189,0.490,0.878,0.842,���쐼,1.1,��
2017/12/02,23:30,0.886,1.455,0.928,1.742,1.184,0.490,0.877,0.842,���쐼,1.2,��
2017/12/02,23:40,0.887,1.455,0.928,1.740,1.185,0.493,0.875,0.845,��,1.5,��
2017/12/02,23:50,0.886,1.459,0.926,1.742,1.185,0.491,0.877,0.841,��,1.7,��
